This is the latest recevied weather packets stored in our database for station/object VR2HK-13. If no packets are shown the sender has not sent any weather packets the latest 10 day(s).
| Time | Temp. | Humidity | Pressure | Rain* | Wind** | Luminosity | Snow |
|---|---|---|---|---|---|---|---|
| 1777535039 | 26.11° C | 59% | 1013.8 hPa | 12.7 mm | - | - | - |
| 1777534791 | 26.67° C | 60% | 1013.8 hPa | 12.19 mm | - | - | - |
| 1777534740 | 26.67° C | 59% | 1013.8 hPa | 11.94 mm | - | - | - |
| 1777534480 | 26.11° C | 59% | 1013.7 hPa | 12.19 mm | - | - | - |
| 1777534171 | 26.67° C | 60% | 1013.7 hPa | 13.72 mm | - | - | - |
| 1777534140 | 26.67° C | 60% | 1013.8 hPa | 13.72 mm | - | - | - |
| 1777533840 | 26.67° C | 60% | 1013.7 hPa | 12.7 mm | - | - | - |
| 1777533550 | 26.67° C | 59% | 1013.9 hPa | 12.45 mm | - | - | - |
| 1777533539 | 26.67° C | 59% | 1013.8 hPa | 12.19 mm | - | - | - |
| 1777533239 | 26.11° C | 61% | 1013.9 hPa | 11.68 mm | - | - | - |
| 1777532939 | 25.56° C | 62% | 1013.9 hPa | 10.67 mm | - | - | - |
| 1777532931 | 25.56° C | 62% | 1013.9 hPa | 10.67 mm | - | - | - |
| 1777532639 | 25.56° C | 60% | 1013.9 hPa | 10.67 mm | - | - | - |
| 1777532620 | 25.56° C | 60% | 1014 hPa | 10.67 mm | - | - | - |
| 1777532339 | 25.56° C | 60% | 1014.1 hPa | 10.92 mm | - | - | - |
| 1777532310 | 25.56° C | 60% | 1014.1 hPa | 10.92 mm | - | - | - |
| 1777532039 | 25.56° C | 61% | 1014.1 hPa | 9.65 mm | - | - | - |
| 1777532001 | 25.56° C | 61% | 1014.1 hPa | 9.65 mm | - | - | - |
| 1777531739 | 25.56° C | 62% | 1014.2 hPa | 9.4 mm | - | - | - |
| 1777531690 | 25° C | 62% | 1014.2 hPa | 9.4 mm | - | - | - |
| 1777531439 | 25° C | 61% | 1014.3 hPa | 10.16 mm | - | - | - |
| 1777531380 | 25° C | 62% | 1014.3 hPa | 10.16 mm | - | - | - |
| 1777531139 | 25° C | 61% | 1014.3 hPa | 10.67 mm | - | - | - |
| 1777531070 | 25° C | 62% | 1014.3 hPa | 10.67 mm | - | - | - |
| 1777530839 | 24.44° C | 63% | 1014.4 hPa | 10.16 mm | - | - | - |
* Rain latest hour (hover to see other rain measurements)
** Current wind speed in m/s (hover to see current wind gust speed)